User: anonymous   Login
Location: ??
(34.9170°N, 135.5016°E)
Time: 14:42:09
(UTC+00:00)
Language:

Meteor 2-5 Rocket - Orbit

View from above orbital plane
View from above orbital plane
View from above satellite
View from above satellite

Ground track
Ground track

The orbit data is extracted from the following two-line orbital elements,

1 11608U 79095B   21019.92576137 -.00000023  00000-0 -21728-4 0  9990
2 11608  81.2131  17.0529 0055605  74.8789 285.8522 14.06165827114325
Epoch (UTC): 19 January 2021 22:13:05
Eccentricity: 0.0055605
inclination: 81.2131°
perigee height: 832 km
apogee height: 913 km
right ascension of ascending node: 17.0529°
argument of perigee: 74.8789°
revolutions per day: 14.06165827
mean anomaly at epoch: 285.8522°
orbit number at epoch: 11432

The dashed part of the orbit path shows where the satellite is in the earth's shadow,  

DLR